Погода в Филипсбурге

Синт-Мартен     18°01′29″N   63°02′52″W
темп.,
°C
ветер,
м/с
пор.,
м/с
влажн.,
%
обл.,
%
осадки,
мм/ч
давл.,
гПа
погр.,
м
13 апреля, вт
вт1323:00+25вюв5681100 0.1 1014604
02:00+25юв6682100 0.3 1012595
05:00+26ююв5681100 0.2 1012657
08:00+26ююв5582100 0.8 1014542
11:00+26ю4483100 1.2 1015227
14:00+26ююз2277100 1.9 1013306
17:00+26зюз227598 0.6 1012465
20:00+26з1176100 0.8 1013250
14 апреля, ср
ср1423:00+26ююз1177100 0.0 1014213
02:00+26юз2278100 0.0 1012307
05:00+26зюз2279100 0.1 1013378
08:00+26з228088 0.6 1014220
11:00+26з227882 0.0 1015445
14:00+26сз4478100 0.2 1013673
17:00+26ссз448024 0.4 1012617
20:00+26с5572100 0.4 1014701
15 апреля, чт
чт1523:00+26с44764 0.0 1014665
02:00+25с44803 0.0 1012628
05:00+25ссв658114 0.1 1013654
08:00+25ссв658020 0.3 1015688
11:00+25св557829 0.1 1016711
14:00+25св657854 0.3 1014771
17:00+25всв667945 0.1 1013783
20:00+26всв768122 0.2 1015696
16 апреля, пт
пт1623:00+26в678214 0.1 1015661
02:00+25вюв668320 0.4 1013615
05:00+26юв55835 0.8 1013541
08:00+25юв55855 4.0 1015364
11:00+26юв568010 3.0 1016683
14:00+27юв66764 3.6 1014760
17:00+27юв567274 0.0 1014931
20:00+26вюв67793 0.0 1015653
17 апреля, сб
сб1723:00+26вюв787942 0.1 1016701
02:00+26вюв787780 0.1 1015542
05:00+26юв57751 0.0 1015769
08:00+26юв567885 0.1 1017526
11:00+26юв677610 0.1 1017743
14:00+27юв6776100 0.2 1016685
17:00+27вюв557555 0.0 1016622
20:00+26в57775 0.1 1018474